Location: Newark
(12.4436°N, 0.6167°W)
Time: 02:31:42
(UTC+00:00)

Vanguard 2 - Pass Details

Date: 15 December 2019
Orbit: 553 x 2938 km, 32.9° (Epoch: 19 January)

Event Time Altitude Azimuth Distance (km) Brightness Sun altitude
Rises 07:24:48 0° 300° (WNW) 6,774 11.7 14.4°
Reaches altitude 10° 07:29:31 10° 298° (WNW) 5,668 11.4 15.4°
Maximum altitude 07:46:13 73° 217° (SW) 2,328 10.2 19.0°
Drops below altitude 10° 07:57:01 10° 134° (SE) 3,833 13.0 21.2°
Sets 07:59:35 0° 132° (SE) 4,548 12.9 21.8°
